[keps] orb10322.2l.amsat

Ray Hoad ray.hoad at mypbmail.com
Thu Nov 18 20:06:54 PST 2010


SB KEPS @ AMSAT  $ORB10322.N
2Line Orbital Elements 10322.AMSAT

HR AMSAT ORBITAL ELEMENTS FOR AMATEUR SATELLITES IN NASA FORMAT
FROM WA5QGD FORT WORTH,TX November 18, 2010
BID: ORB10322.N

DECODE 2-LINE ELSETS WITH THE FOLLOWING KEY:
1 AAAAAU 00  0  0 BBBBB.BBBBBBBB  .CCCCCCCC  00000-0  00000-0 0  DDDZ
2 AAAAA EEE.EEEE FFF.FFFF GGGGGGG HHH.HHHH III.IIII JJ.JJJJJJJJKKKKKZ
KEY: A-CATALOGNUM B-EPOCHTIME C-DECAY D-ELSETNUM E-INCLINATION F-RAAN
G-ECCENTRICITY H-ARGPERIGEE I-MNANOM J-MNMOTION K-ORBITNUM Z-CHECKSUM

TO ALL RADIO AMATEURS BT

AO-07
1 07530U 74089B   10321.66998435 -.00000027  00000-0  10000-3 0 09310
2 07530 101.3982 331.5589 0011965 334.5287 025.5189 12.53580203647689
FO-29
1 24278U 96046B   10322.88634052  .00000042  00000-0  75282-4 0  4429
2 24278 098.5190 130.6821 0351408 082.5344 281.5579 13.52954725704028
SO-33
1 25509U 98061B   10321.46501881  .00000055  00000-0 -31077-5 0 08392
2 25509 031.4344 001.7162 0353891 190.1852 169.1545 14.28339310629983
RS-22
1 27939U 03042A   10322.64626930  .00000169  00000-0  41242-4 0  7343
2 27939 097.8681 181.3854 0012745 294.8934 065.0936 14.63477879381545
VO-52
1 28650U 05017B   10321.55442529  .00000123  00000-0  21812-4 0 06505
2 28650 097.6731 008.8432 0027797 132.8943 227.4629 14.81851221299402
SO-67
1 35870U 09049F   10322.78816145  .00001448  00000-0  67983-4 0  2990
2 35870 097.3126 007.6735 0001520 295.4552 197.7991 15.21189295 64951
HO-68
1 36122U 09072B   10322.62059575 -.00000045  00000-0  00000 0 0  8571
2 36122 100.4495 021.3458 0007535 348.0518 012.0414 13.16282735 44537
UO-11
1 14781U 84021B   10322.72838632  .00000484  00000-0  71197-4 0  3958
2 14781 098.0369 014.7645 0010230 098.5808 261.6566 14.79860907434665
AO-16
1 20439U 90005D   10322.62119090  .00000062  00000-0  38920-4 0   465
2 20439 098.3549 274.6145 0011899 069.5553 290.6910 14.31883761 87484
LO-19
1 20442U 90005G   10322.80382230  .00000097  00000-0  51443-4 0  9560
2 20442 098.3168 279.9718 0012743 064.3747 295.8756 14.32112804 87687
AO-27
1 22825U 93061C   10322.72200575  .00000120  00000-0  64084-4 0  6787
2 22825 098.5050 266.8100 0008485 169.3347 190.8021 14.29316868894122
IO-26
1 22826U 93061D   10322.75970339  .00000073  00000-0  45301-4 0  4161
2 22826 098.4996 267.3930 0009064 163.8839 196.2635 14.29574889894240
GO-32
1 25397U 98043D   10322.84256888 -.00000055  00000-0 -65681-5 0  3354
2 25397 098.3178 321.8055 0001723 138.4030 221.7289 14.23189174642047
NO-44
1 26931U 01043C   10321.69637574 -.00000251  00000-0 -65496-4 0  6095
2 26931 067.0506 168.4596 0005783 274.0379 086.0050 14.29619758476694
SO-50
1 27607U 02058C   10322.27335041  .00000214  00000-0  55529-4 0  3216
2 27607 064.5580 248.4719 0047899 015.1534 345.0991 14.71607156425058
CO-55
1 27844U 03031E   10321.62418058  .00000122  00000-0  76920-4 0  9806
2 27844 098.7096 328.4033 0010577 087.1900 273.0500 14.20746617382877
CO-57
1 27848U 03031J   10322.52155456  .00000069  00000-0  52318-4 0  9298
2 27848 098.7148 328.4141 0010475 089.2998 270.9372 14.20534957382950
AO-51
1 28375U 04025K   10321.49753592  .00000057  00000-0  29920-4 0 08275
2 28375 098.0750 306.3774 0084625 352.8184 007.1790 14.40709901335585
GENESAT1
1 29655U 06058C   10216.61700559  .10637092  69904-5  33715-3 0  2265
2 29655 040.0059 067.3006 0005079 297.8744 064.7087 16.44862838207776
CP3
1 31129U 07012N   10321.65012713  .00000161  00000-0  47063-4 0  7257
2 31129 097.9235 352.8807 0103798 117.6628 243.5159 14.52334741190132
CO-65
1 32785U 08021C   10322.26994319  .00000352  00000-0  51271-4 0  8390
2 32785 097.8788 024.9160 0015502 140.1351 220.1059 14.81765703138300
KKS-1
1 33493U 09002B   10322.42335880  .00000988  00000-0  13364-3 0   484
2 33493 098.1020 083.4048 0020039 006.0379 354.1076 14.81203727 98312
SOHLA-1
1 33496U 09002E   10321.84144663  .00000202  00000-0  42314-4 0  2578
2 33496 098.0683 069.0213 0007707 077.1520 283.0546 14.69534120 97442
TISAT-1
1 36799U 10035E   10322.79257837  .00000656  00000-0  93329-4 0  3237
2 36799 098.1310 023.7185 0014402 234.1878 125.7987 14.80235069 19184
STUDSAT
1 36801U 10035G   10321.75603355  .00001858  00000-0  25361-3 0 01093
2 36801 098.1332 022.5615 0013084 227.3338 132.6771 14.79808596019027
NOAA-10
1 16969U 86073A   10321.59319897  .00000064  00000-0  43768-4 0 02785
2 16969 098.6440 349.0171 0012778 121.1297 239.1131 14.27434314257464
NOAA-11
1 19531U 88089A   10321.69020581 -.00000155  00000-0 -57602-4 0 02877
2 19531 098.7648 048.0675 0012356 070.8504 289.4020 14.14941791142849
NOAA-12
1 21263U 91032A   10321.77120538  .00000071  00000-0  48595-4 0 07798
2 21263 098.7618 334.8893 0013375 081.1000 279.1689 14.25667511014287
MET-3/5
1 21655U 91056A   10321.78912014  .00000051  00000-0  10000-3 0  9663
2 21655 082.5589 200.1109 0013300 330.8130 029.2292 13.17026223925892
MET-2/21
1 22782U 93055A   10321.66833701  .00000001  00000-0 -12531-4 0  9408
2 22782 082.5447 130.6955 0021867 335.9778 024.0363 13.83649723869308
OKEAN-4
1 23317U 94066A   10321.76912959  .00000319  00000-0  36164-4 0 03986
2 23317 082.5416 210.5000 0023841 094.8975 265.4945 14.82895202869214
NOAA-14
1 23455U 94089A   10321.78619211 -.00000017  00000-0  14192-4 0 02680
2 23455 098.8690 041.3796 0009604 155.1037 205.0601 14.13799996819204
NOAA-15
1 25338U 98030A   10321.52011977 -.00000102  00000-0 -25019-4 0 05970
2 25338 098.6355 305.8214 0010565 354.0325 006.0737 14.24865690650583
RESURS
1 25394U 98043A   10322.62699039  .00000014  00000-0  23541-4 0  6541
2 25394 098.3007 332.2684 0002045 104.0242 256.1162 14.24215874642333
FENGYUN1
1 25730U 99025A   10321.77004085  .00001241  00000-0  74797-3 0  1863
2 25730 098.8009 282.8356 0019944 190.5913 169.4838 14.08411828593308
OKEAN-0
1 25860U 99039A   10321.86880324  .00000206  00000-0  39018-4 0  1521
2 25860 097.8548 289.5255 0000989 043.0483 317.0802 14.73683626609538
NOAA-16
1 26536U 00055A   10321.57720590 -.00000270  00000-0 -12071-3 0 00732
2 26536 099.1633 342.6065 0009809 267.1249 092.8798 14.12583666523485
NOAA-17
1 27453U 02032A   10321.71538265  .00000153  00000-0  84405-4 0 00650
2 27453 098.4118 005.8191 0012504 051.5692 308.6594 14.24210158436554
NOAA-18
1 28654U 05018A   10321.78080918  .00000158  00000-0  11189-3 0 05552
2 28654 098.9686 267.7280 0014168 343.9187 016.1556 14.11408388283106
NOAA-19
1 33591U 09005A   10321.73146201  .00000211  00000-0  14124-3 0 07500
2 33591 098.8044 260.6912 0013617 212.0490 147.9848 14.11104471091564
HUBBLE
1 20580U 90037B   10322.23800227  .00000811  00000-0  49095-4 0  6770
2 20580 028.4711 314.0931 0003174 044.1313 315.9453 15.01096561927925
ISS
1 25544U 98067A   10322.29145833  .00018412  00000-0  13679-3 0  2980
2 25544 051.6439 161.9899 0007603 212.9096 126.3632 15.72878646687703
CO-58
1 28895U 05043F   10321.36809098  .00000222  00000-0  55552-4 0 07309
2 28895 097.9922 200.5774 0018322 161.7705 198.4144 14.59964909269330
FALCON
1 30776U 07006E   10321.91277533  .00001382  00000-0  10109-3 0 09662
2 30776 035.4332 190.8141 0001019 012.9237 347.1507 15.03957103203213
MAST
1 31126U 07012K   10321.65502011  .00000113  00000-0  35563-4 0 00161
2 31126 097.9211 355.5899 0095405 108.5570 252.6013 14.53642888190353
CAPE1
1 31130U 07012P   10322.61231242  .00000551  00000-0  13665-3 0   342
2 31130 097.9224 353.6098 0104406 115.1847 246.0233 14.52254493190075
COMPASS
1 32787U 08021E   10321.30311006  .00000967  00000-0  12811-3 0 08334
2 32787 097.8759 023.8147 0016054 143.6072 216.6219 14.82046205138177
AAUSAT2
1 32788U 08021F   10321.69596646  .00001061  00000-0  13941-3 0  8221
2 32788 097.8775 024.3666 0015996 143.2394 216.9907 14.82201405138245
DO-64
1 32789U 08021G   10321.68573126  .00001603  00000-0  20615-3 0 08407
2 32789 097.8853 025.0182 0016161 142.1017 218.1332 14.82438597138249
CO-66
1 32791U 08021J   10322.15889224  .00001001  00000-0  13318-3 0  8248
2 32791 097.8788 024.6503 0016567 139.7771 220.4675 14.81805108138252
RS-30
1 32953U 08025A   10321.94431816  .00000010  00000-0  00000 0 0  2230
2 32953 082.4994 294.0655 0019784 123.9214 236.3751 12.43009179112841
TACSAT-3
1 35001U 09028A   10321.54306924  .00009732  00000-0  21414-3 0 04449
2 35001 040.4553 011.8194 0021264 071.0230 289.2888 15.43644042084329
PHARMSAT
1 35002U 09028B   10321.51784220  .00008813  00000-0  19202-3 0 04111
2 35002 040.4683 009.5445 0023523 074.2577 286.0831 15.43969320084340
HAWKSAT1
1 35003U 09028C   10321.48804981  .00021529  00000-0  38527-3 0 04452
2 35003 040.4571 358.8917 0021924 096.8620 263.4693 15.49157243084460
CP6
1 35004U 09028D   10321.49908971  .00027799  00000-0  46734-3 0 04463
2 35004 040.4607 356.2878 0021029 104.0231 256.2930 15.50837301084483
AEROCUB3
1 35005U 09028E   10322.41035837  .00202057  00000-0  14375-2 0  5265
2 35005 040.4649 334.0078 0023167 143.7968 216.4434 15.72052859 84813
METEOR-M
1 35865U 09049A   10322.74070770  .00000176  00000-0  10000-3 0  8468
2 35865 098.7388 015.2733 0002080 301.4013 058.6925 14.21832913 60684
RS-38
1 35869U 09049E   10322.83590043  .00000177  00000-0  10000-3 0  8586
2 35869 098.7370 015.4079 0003966 286.4939 073.5776 14.21993676 60704
/EX




More information about the Keps mailing list